<?xml version="1.0" encoding="UTF-8" standalone="no" ?>
<gpx xmlns="http://www.topografix.com/GPX/1/1" xmlns:xsi="http://www.w3.org/2001/XMLSchema-instance" xsi:schemaLocation="http://www.topografix.com/GPX/1/1 http://www.topografix.com/GPX/1/1/gpx.xsd" version="1.1" creator="VisuGPX - https://www.visugpx.com">
  <metadata>
    <name>brest-quimper 4-4</name>
    <desc><![CDATA[raid dans le 29 de brest à quimper]]></desc>
  </metadata>
  <trk>
    <name><![CDATA[GR38 De Douarnenez (Finistère) à Plouay (Morbihan)]]></name>
    <cmt><![CDATA[Randonnée avec le GR38 à travers le Finistère et le Morbihan de Douarnenez à Plouay.]]></cmt>
    <trkseg>
      <trkpt lat="48.09244" lon="-4.3281">
        <ele>33.138160705566</ele>
        <time>0001-01-01T00:00:00</time>
      </trkpt>
      <trkpt lat="48.09304" lon="-4.32364">
        <ele>13.27730178833</ele>
        <time>0001-01-01T00:00:00</time>
      </trkpt>
      <trkpt lat="48.09238" lon="-4.32205">
        <ele>14.550047874451</ele>
        <time>0001-01-01T00:00:00</time>
      </trkpt>
      <trkpt lat="48.09118" lon="-4.32162">
        <ele>24.450637817383</ele>
        <time>0001-01-01T00:00:00</time>
      </trkpt>
      <trkpt lat="48.09127" lon="-4.31926">
        <ele>22.413024902344</ele>
        <time>0001-01-01T00:00:00</time>
      </trkpt>
      <trkpt lat="48.09158" lon="-4.31934">
        <ele>19.721988677979</ele>
        <time>0001-01-01T00:00:00</time>
      </trkpt>
      <trkpt lat="48.09193" lon="-4.31694">
        <ele>23.299657821655</ele>
        <time>0001-01-01T00:00:00</time>
      </trkpt>
      <trkpt lat="48.09177" lon="-4.31492">
        <ele>26.259616851807</ele>
        <time>0001-01-01T00:00:00</time>
      </trkpt>
      <trkpt lat="48.08844" lon="-4.30651">
        <ele>50.060607910156</ele>
        <time>0001-01-01T00:00:00</time>
      </trkpt>
      <trkpt lat="48.08771" lon="-4.30613">
        <ele>63.428207397461</ele>
        <time>0001-01-01T00:00:00</time>
      </trkpt>
      <trkpt lat="48.09022" lon="-4.30115">
        <ele>19.581111907959</ele>
        <time>0001-01-01T00:00:00</time>
      </trkpt>
      <trkpt lat="48.08989" lon="-4.30029">
        <ele>29.208047866821</ele>
        <time>0001-01-01T00:00:00</time>
      </trkpt>
      <trkpt lat="48.08935" lon="-4.30012">
        <ele>39.052631378174</ele>
        <time>0001-01-01T00:00:00</time>
      </trkpt>
      <trkpt lat="48.08863" lon="-4.30044">
        <ele>48.608947753906</ele>
        <time>0001-01-01T00:00:00</time>
      </trkpt>
      <trkpt lat="48.08672" lon="-4.2999">
        <ele>69.24779510498</ele>
        <time>0001-01-01T00:00:00</time>
      </trkpt>
      <trkpt lat="48.08432" lon="-4.29615">
        <ele>67.937599182129</ele>
        <time>0001-01-01T00:00:00</time>
      </trkpt>
      <trkpt lat="48.08516" lon="-4.29572">
        <ele>68.780090332031</ele>
        <time>0001-01-01T00:00:00</time>
      </trkpt>
      <trkpt lat="48.08632" lon="-4.29668">
        <ele>70.392112731934</ele>
        <time>0001-01-01T00:00:00</time>
      </trkpt>
      <trkpt lat="48.08717" lon="-4.29658">
        <ele>65.78515625</ele>
        <time>0001-01-01T00:00:00</time>
      </trkpt>
      <trkpt lat="48.08731" lon="-4.29407">
        <ele>57.560028076172</ele>
        <time>0001-01-01T00:00:00</time>
      </trkpt>
      <trkpt lat="48.08691" lon="-4.29072">
        <ele>43.780586242676</ele>
        <time>0001-01-01T00:00:00</time>
      </trkpt>
      <trkpt lat="48.08565" lon="-4.29035">
        <ele>49.071960449219</ele>
        <time>0001-01-01T00:00:00</time>
      </trkpt>
      <trkpt lat="48.08522" lon="-4.28956">
        <ele>45.29655456543</ele>
        <time>0001-01-01T00:00:00</time>
      </trkpt>
      <trkpt lat="48.08516" lon="-4.28821">
        <ele>43.0068359375</ele>
        <time>0001-01-01T00:00:00</time>
      </trkpt>
      <trkpt lat="48.08479" lon="-4.28834">
        <ele>48.280303955078</ele>
        <time>0001-01-01T00:00:00</time>
      </trkpt>
      <trkpt lat="48.08436" lon="-4.28932">
        <ele>54.957412719727</ele>
        <time>0001-01-01T00:00:00</time>
      </trkpt>
      <trkpt lat="48.08398" lon="-4.2898">
        <ele>60.393466949463</ele>
        <time>0001-01-01T00:00:00</time>
      </trkpt>
      <trkpt lat="48.0833" lon="-4.28973">
        <ele>66.307884216309</ele>
        <time>0001-01-01T00:00:00</time>
      </trkpt>
      <trkpt lat="48.08313" lon="-4.28793">
        <ele>65.27278137207</ele>
        <time>0001-01-01T00:00:00</time>
      </trkpt>
      <trkpt lat="48.08235" lon="-4.28645">
        <ele>64.355735778809</ele>
        <time>0001-01-01T00:00:00</time>
      </trkpt>
      <trkpt lat="48.08191" lon="-4.28392">
        <ele>59.437244415283</ele>
        <time>0001-01-01T00:00:00</time>
      </trkpt>
      <trkpt lat="48.08255" lon="-4.28304">
        <ele>49.155452728271</ele>
        <time>0001-01-01T00:00:00</time>
      </trkpt>
      <trkpt lat="48.08257" lon="-4.28128">
        <ele>50.532417297363</ele>
        <time>0001-01-01T00:00:00</time>
      </trkpt>
      <trkpt lat="48.08368" lon="-4.27952">
        <ele>33.345390319824</ele>
        <time>0001-01-01T00:00:00</time>
      </trkpt>
      <trkpt lat="48.08421" lon="-4.27778">
        <ele>27.236074447632</ele>
        <time>0001-01-01T00:00:00</time>
      </trkpt>
      <trkpt lat="48.0845" lon="-4.27793">
        <ele>22.616664886475</ele>
        <time>0001-01-01T00:00:00</time>
      </trkpt>
      <trkpt lat="48.08467" lon="-4.2792">
        <ele>17.501264572144</ele>
        <time>0001-01-01T00:00:00</time>
      </trkpt>
      <trkpt lat="48.08509" lon="-4.2778">
        <ele>13.739735603332</ele>
        <time>0001-01-01T00:00:00</time>
      </trkpt>
      <trkpt lat="48.0857" lon="-4.2772">
        <ele>10.267127990723</ele>
        <time>0001-01-01T00:00:00</time>
      </trkpt>
      <trkpt lat="48.08433" lon="-4.2739">
        <ele>9.9907655715942</ele>
        <time>0001-01-01T00:00:00</time>
      </trkpt>
      <trkpt lat="48.08522" lon="-4.27366">
        <ele>22.024429321289</ele>
        <time>0001-01-01T00:00:00</time>
      </trkpt>
      <trkpt lat="48.08595" lon="-4.27302">
        <ele>35.977188110352</ele>
        <time>0001-01-01T00:00:00</time>
      </trkpt>
      <trkpt lat="48.08582" lon="-4.27267">
        <ele>35.270938873291</ele>
        <time>0001-01-01T00:00:00</time>
      </trkpt>
      <trkpt lat="48.08624" lon="-4.271">
        <ele>32.769561767578</ele>
        <time>0001-01-01T00:00:00</time>
      </trkpt>
      <trkpt lat="48.08566" lon="-4.26948">
        <ele>24.893644332886</ele>
        <time>0001-01-01T00:00:00</time>
      </trkpt>
      <trkpt lat="48.08292" lon="-4.27016">
        <ele>11.39904499054</ele>
        <time>0001-01-01T00:00:00</time>
      </trkpt>
      <trkpt lat="48.084" lon="-4.26755">
        <ele>27.182209014893</ele>
        <time>0001-01-01T00:00:00</time>
      </trkpt>
      <trkpt lat="48.0836" lon="-4.26531">
        <ele>58.715976715088</ele>
        <time>0001-01-01T00:00:00</time>
      </trkpt>
      <trkpt lat="48.08215" lon="-4.26581">
        <ele>56.414657592773</ele>
        <time>0001-01-01T00:00:00</time>
      </trkpt>
      <trkpt lat="48.08059" lon="-4.26555">
        <ele>45.424236297607</ele>
        <time>0001-01-01T00:00:00</time>
      </trkpt>
      <trkpt lat="48.07993" lon="-4.26503">
        <ele>45.884269714355</ele>
        <time>0001-01-01T00:00:00</time>
      </trkpt>
      <trkpt lat="48.07956" lon="-4.26418">
        <ele>49.589385986328</ele>
        <time>0001-01-01T00:00:00</time>
      </trkpt>
      <trkpt lat="48.07907" lon="-4.26396">
        <ele>45.110458374023</ele>
        <time>0001-01-01T00:00:00</time>
      </trkpt>
      <trkpt lat="48.07976" lon="-4.26014">
        <ele>68.347480773926</ele>
        <time>0001-01-01T00:00:00</time>
      </trkpt>
      <trkpt lat="48.08046" lon="-4.25896">
        <ele>74.297874450684</ele>
        <time>0001-01-01T00:00:00</time>
      </trkpt>
      <trkpt lat="48.08136" lon="-4.2595">
        <ele>76.37393951416</ele>
        <time>0001-01-01T00:00:00</time>
      </trkpt>
      <trkpt lat="48.0843" lon="-4.25709">
        <ele>90.762855529785</ele>
        <time>0001-01-01T00:00:00</time>
      </trkpt>
      <trkpt lat="48.08459" lon="-4.25888">
        <ele>81.724380493164</ele>
        <time>0001-01-01T00:00:00</time>
      </trkpt>
      <trkpt lat="48.08575" lon="-4.25991">
        <ele>78.569046020508</ele>
        <time>0001-01-01T00:00:00</time>
      </trkpt>
      <trkpt lat="48.08682" lon="-4.25739">
        <ele>93.53736114502</ele>
        <time>0001-01-01T00:00:00</time>
      </trkpt>
      <trkpt lat="48.0876" lon="-4.25733">
        <ele>96.9794921875</ele>
        <time>0001-01-01T00:00:00</time>
      </trkpt>
      <trkpt lat="48.08805" lon="-4.25664">
        <ele>99.055038452148</ele>
        <time>0001-01-01T00:00:00</time>
      </trkpt>
      <trkpt lat="48.08768" lon="-4.25452">
        <ele>101.35451507568</ele>
        <time>0001-01-01T00:00:00</time>
      </trkpt>
      <trkpt lat="48.08798" lon="-4.25422">
        <ele>101.35737609863</ele>
        <time>0001-01-01T00:00:00</time>
      </trkpt>
      <trkpt lat="48.08708" lon="-4.25304">
        <ele>102.28869628906</ele>
        <time>0001-01-01T00:00:00</time>
      </trkpt>
      <trkpt lat="48.08644" lon="-4.2507">
        <ele>106.50942993164</ele>
        <time>0001-01-01T00:00:00</time>
      </trkpt>
      <trkpt lat="48.08627" lon="-4.24735">
        <ele>114.50455474853</ele>
        <time>0001-01-01T00:00:00</time>
      </trkpt>
      <trkpt lat="48.08705" lon="-4.24429">
        <ele>121.42059326172</ele>
        <time>0001-01-01T00:00:00</time>
      </trkpt>
      <trkpt lat="48.08996" lon="-4.24319">
        <ele>127.44905090332</ele>
        <time>0001-01-01T00:00:00</time>
      </trkpt>
      <trkpt lat="48.09031" lon="-4.24242">
        <ele>131.05502319336</ele>
        <time>0001-01-01T00:00:00</time>
      </trkpt>
      <trkpt lat="48.08958" lon="-4.24089">
        <ele>136.87065124512</ele>
        <time>0001-01-01T00:00:00</time>
      </trkpt>
      <trkpt lat="48.08973" lon="-4.23976">
        <ele>132.68650817871</ele>
        <time>0001-01-01T00:00:00</time>
      </trkpt>
      <trkpt lat="48.09064" lon="-4.23907">
        <ele>128.93856811523</ele>
        <time>0001-01-01T00:00:00</time>
      </trkpt>
      <trkpt lat="48.09191" lon="-4.23862">
        <ele>129.19804382324</ele>
        <time>0001-01-01T00:00:00</time>
      </trkpt>
      <trkpt lat="48.09359" lon="-4.23772">
        <ele>117.75870513916</ele>
        <time>0001-01-01T00:00:00</time>
      </trkpt>
      <trkpt lat="48.09476" lon="-4.23579">
        <ele>117.3302154541</ele>
        <time>0001-01-01T00:00:00</time>
      </trkpt>
      <trkpt lat="48.09642" lon="-4.23572">
        <ele>117.61114501953</ele>
        <time>0001-01-01T00:00:00</time>
      </trkpt>
      <trkpt lat="48.09668" lon="-4.23538">
        <ele>118.4899597168</ele>
        <time>0001-01-01T00:00:00</time>
      </trkpt>
      <trkpt lat="48.09803" lon="-4.23549">
        <ele>106.5297164917</ele>
        <time>0001-01-01T00:00:00</time>
      </trkpt>
      <trkpt lat="48.09885" lon="-4.23313">
        <ele>106.52694702148</ele>
        <time>0001-01-01T00:00:00</time>
      </trkpt>
      <trkpt lat="48.09933" lon="-4.23064">
        <ele>107.77548217773</ele>
        <time>0001-01-01T00:00:00</time>
      </trkpt>
      <trkpt lat="48.10048" lon="-4.23079">
        <ele>99.070991516113</ele>
        <time>0001-01-01T00:00:00</time>
      </trkpt>
      <trkpt lat="48.10088" lon="-4.22971">
        <ele>95.375938415527</ele>
        <time>0001-01-01T00:00:00</time>
      </trkpt>
      <trkpt lat="48.10134" lon="-4.22946">
        <ele>92.115852355957</ele>
        <time>0001-01-01T00:00:00</time>
      </trkpt>
      <trkpt lat="48.10232" lon="-4.22785">
        <ele>77.926826477051</ele>
        <time>0001-01-01T00:00:00</time>
      </trkpt>
      <trkpt lat="48.10331" lon="-4.22439">
        <ele>79.708694458008</ele>
        <time>0001-01-01T00:00:00</time>
      </trkpt>
      <trkpt lat="48.10336" lon="-4.22212">
        <ele>81.755867004395</ele>
        <time>0001-01-01T00:00:00</time>
      </trkpt>
      <trkpt lat="48.10379" lon="-4.22017">
        <ele>88.098930358887</ele>
        <time>0001-01-01T00:00:00</time>
      </trkpt>
      <trkpt lat="48.1029" lon="-4.21877">
        <ele>97.743545532227</ele>
        <time>0001-01-01T00:00:00</time>
      </trkpt>
      <trkpt lat="48.10395" lon="-4.21853">
        <ele>89.967140197754</ele>
        <time>0001-01-01T00:00:00</time>
      </trkpt>
      <trkpt lat="48.10397" lon="-4.21774">
        <ele>90.169799804688</ele>
        <time>0001-01-01T00:00:00</time>
      </trkpt>
      <trkpt lat="48.10441" lon="-4.21695">
        <ele>86.813354492188</ele>
        <time>0001-01-01T00:00:00</time>
      </trkpt>
      <trkpt lat="48.10472" lon="-4.21542">
        <ele>86.625671386719</ele>
        <time>0001-01-01T00:00:00</time>
      </trkpt>
      <trkpt lat="48.10155" lon="-4.21442">
        <ele>116.35781860352</ele>
        <time>0001-01-01T00:00:00</time>
      </trkpt>
      <trkpt lat="48.10174" lon="-4.21278">
        <ele>113.05239868164</ele>
        <time>0001-01-01T00:00:00</time>
      </trkpt>
      <trkpt lat="48.1009" lon="-4.21242">
        <ele>119.26606750488</ele>
        <time>0001-01-01T00:00:00</time>
      </trkpt>
      <trkpt lat="48.10009" lon="-4.21014">
        <ele>126.50370788574</ele>
        <time>0001-01-01T00:00:00</time>
      </trkpt>
      <trkpt lat="48.0989" lon="-4.20909">
        <ele>147.22122192383</ele>
        <time>0001-01-01T00:00:00</time>
      </trkpt>
      <trkpt lat="48.09819" lon="-4.20871">
        <ele>155.5100402832</ele>
        <time>0001-01-01T00:00:00</time>
      </trkpt>
      <trkpt lat="48.09863" lon="-4.20686">
        <ele>157.46534729004</ele>
        <time>0001-01-01T00:00:00</time>
      </trkpt>
      <trkpt lat="48.09713" lon="-4.20598">
        <ele>180.43635559082</ele>
        <time>0001-01-01T00:00:00</time>
      </trkpt>
      <trkpt lat="48.09697" lon="-4.20433">
        <ele>195.47514343262</ele>
        <time>0001-01-01T00:00:00</time>
      </trkpt>
      <trkpt lat="48.09637" lon="-4.20276">
        <ele>208.21978759766</ele>
        <time>0001-01-01T00:00:00</time>
      </trkpt>
      <trkpt lat="48.09476" lon="-4.19937">
        <ele>210.93450927734</ele>
        <time>0001-01-01T00:00:00</time>
      </trkpt>
      <trkpt lat="48.09348" lon="-4.19886">
        <ele>217.30844116211</ele>
        <time>0001-01-01T00:00:00</time>
      </trkpt>
      <trkpt lat="48.09375" lon="-4.19789">
        <ele>216.72380065918</ele>
        <time>0001-01-01T00:00:00</time>
      </trkpt>
      <trkpt lat="48.09261" lon="-4.19703">
        <ele>203.43179321289</ele>
        <time>0001-01-01T00:00:00</time>
      </trkpt>
      <trkpt lat="48.09324" lon="-4.19536">
        <ele>201.91607666016</ele>
        <time>0001-01-01T00:00:00</time>
      </trkpt>
      <trkpt lat="48.09207" lon="-4.19429">
        <ele>188.9475402832</ele>
        <time>0001-01-01T00:00:00</time>
      </trkpt>
      <trkpt lat="48.09277" lon="-4.19242">
        <ele>208.00677490234</ele>
        <time>0001-01-01T00:00:00</time>
      </trkpt>
      <trkpt lat="48.0932" lon="-4.18983">
        <ele>217.36660766602</ele>
        <time>0001-01-01T00:00:00</time>
      </trkpt>
      <trkpt lat="48.0936" lon="-4.1891">
        <ele>222.77136230469</ele>
        <time>0001-01-01T00:00:00</time>
      </trkpt>
      <trkpt lat="48.0921" lon="-4.18633">
        <ele>217.29721069336</ele>
        <time>0001-01-01T00:00:00</time>
      </trkpt>
      <trkpt lat="48.09142" lon="-4.18101">
        <ele>189.46424865723</ele>
        <time>0001-01-01T00:00:00</time>
      </trkpt>
      <trkpt lat="48.09157" lon="-4.1803">
        <ele>187.25416564941</ele>
        <time>0001-01-01T00:00:00</time>
      </trkpt>
      <trkpt lat="48.09119" lon="-4.18041">
        <ele>183.53448486328</ele>
        <time>0001-01-01T00:00:00</time>
      </trkpt>
      <trkpt lat="48.08953" lon="-4.17963">
        <ele>164.16502380371</ele>
        <time>0001-01-01T00:00:00</time>
      </trkpt>
      <trkpt lat="48.08902" lon="-4.17886">
        <ele>160.14402770996</ele>
        <time>0001-01-01T00:00:00</time>
      </trkpt>
      <trkpt lat="48.08893" lon="-4.18161">
        <ele>171.1813659668</ele>
        <time>0001-01-01T00:00:00</time>
      </trkpt>
      <trkpt lat="48.0895" lon="-4.18268">
        <ele>179.22052001953</ele>
        <time>0001-01-01T00:00:00</time>
      </trkpt>
      <trkpt lat="48.08935" lon="-4.18352">
        <ele>178.79013061523</ele>
        <time>0001-01-01T00:00:00</time>
      </trkpt>
      <trkpt lat="48.08767" lon="-4.18302">
        <ele>166.01618957519</ele>
        <time>0001-01-01T00:00:00</time>
      </trkpt>
      <trkpt lat="48.08747" lon="-4.18011">
        <ele>165.81945800781</ele>
        <time>0001-01-01T00:00:00</time>
      </trkpt>
      <trkpt lat="48.08639" lon="-4.18008">
        <ele>150.54225158691</ele>
        <time>0001-01-01T00:00:00</time>
      </trkpt>
      <trkpt lat="48.08604" lon="-4.18517">
        <ele>132.62307739258</ele>
        <time>0001-01-01T00:00:00</time>
      </trkpt>
      <trkpt lat="48.08493" lon="-4.18427">
        <ele>125.57487487793</ele>
        <time>0001-01-01T00:00:00</time>
      </trkpt>
      <trkpt lat="48.08373" lon="-4.18427">
        <ele>121.12839508057</ele>
        <time>0001-01-01T00:00:00</time>
      </trkpt>
      <trkpt lat="48.08393" lon="-4.18107">
        <ele>117.54943847656</ele>
        <time>0001-01-01T00:00:00</time>
      </trkpt>
      <trkpt lat="48.08476" lon="-4.18051">
        <ele>123.52171325684</ele>
        <time>0001-01-01T00:00:00</time>
      </trkpt>
      <trkpt lat="48.08539" lon="-4.17948">
        <ele>131.62692260742</ele>
        <time>0001-01-01T00:00:00</time>
      </trkpt>
      <trkpt lat="48.08721" lon="-4.17869">
        <ele>156.68014526367</ele>
        <time>0001-01-01T00:00:00</time>
      </trkpt>
      <trkpt lat="48.08545" lon="-4.17862">
        <ele>136.08848571777</ele>
        <time>0001-01-01T00:00:00</time>
      </trkpt>
      <trkpt lat="48.084" lon="-4.17371">
        <ele>139.11001586914</ele>
        <time>0001-01-01T00:00:00</time>
      </trkpt>
      <trkpt lat="48.08292" lon="-4.17193">
        <ele>128.34858703613</ele>
        <time>0001-01-01T00:00:00</time>
      </trkpt>
      <trkpt lat="48.08189" lon="-4.17214">
        <ele>117.30975341797</ele>
        <time>0001-01-01T00:00:00</time>
      </trkpt>
      <trkpt lat="48.08123" lon="-4.17174">
        <ele>116.31494140625</ele>
        <time>0001-01-01T00:00:00</time>
      </trkpt>
      <trkpt lat="48.08033" lon="-4.1686">
        <ele>121.60125732422</ele>
        <time>0001-01-01T00:00:00</time>
      </trkpt>
      <trkpt lat="48.07923" lon="-4.16652">
        <ele>127.79490661621</ele>
        <time>0001-01-01T00:00:00</time>
      </trkpt>
      <trkpt lat="48.07715" lon="-4.16504">
        <ele>123.65217590332</ele>
        <time>0001-01-01T00:00:00</time>
      </trkpt>
      <trkpt lat="48.0767" lon="-4.16354">
        <ele>126.58058929443</ele>
        <time>0001-01-01T00:00:00</time>
      </trkpt>
      <trkpt lat="48.0769" lon="-4.16219">
        <ele>123.82034301758</ele>
        <time>0001-01-01T00:00:00</time>
      </trkpt>
      <trkpt lat="48.07639" lon="-4.16217">
        <ele>124.61019134522</ele>
        <time>0001-01-01T00:00:00</time>
      </trkpt>
      <trkpt lat="48.07611" lon="-4.16094">
        <ele>125.87944030762</ele>
        <time>0001-01-01T00:00:00</time>
      </trkpt>
      <trkpt lat="48.07672" lon="-4.16036">
        <ele>128.57069396973</ele>
        <time>0001-01-01T00:00:00</time>
      </trkpt>
      <trkpt lat="48.07759" lon="-4.15659">
        <ele>132.31697082519</ele>
        <time>0001-01-01T00:00:00</time>
      </trkpt>
      <trkpt lat="48.07765" lon="-4.15431">
        <ele>128.68214416504</ele>
        <time>0001-01-01T00:00:00</time>
      </trkpt>
      <trkpt lat="48.07733" lon="-4.15107">
        <ele>136.81840515137</ele>
        <time>0001-01-01T00:00:00</time>
      </trkpt>
      <trkpt lat="48.07742" lon="-4.14738">
        <ele>132.47068786621</ele>
        <time>0001-01-01T00:00:00</time>
      </trkpt>
      <trkpt lat="48.07772" lon="-4.14423">
        <ele>118.6427230835</ele>
        <time>0001-01-01T00:00:00</time>
      </trkpt>
      <trkpt lat="48.07771" lon="-4.14178">
        <ele>97.205627441406</ele>
        <time>0001-01-01T00:00:00</time>
      </trkpt>
      <trkpt lat="48.07852" lon="-4.14021">
        <ele>96.319259643555</ele>
        <time>0001-01-01T00:00:00</time>
      </trkpt>
      <trkpt lat="48.07967" lon="-4.13906">
        <ele>110.84309387207</ele>
        <time>0001-01-01T00:00:00</time>
      </trkpt>
      <trkpt lat="48.07957" lon="-4.13685">
        <ele>121.63679504394</ele>
        <time>0001-01-01T00:00:00</time>
      </trkpt>
      <trkpt lat="48.08154" lon="-4.13586">
        <ele>138.91310119629</ele>
        <time>0001-01-01T00:00:00</time>
      </trkpt>
      <trkpt lat="48.08189" lon="-4.13404">
        <ele>136.97528076172</ele>
        <time>0001-01-01T00:00:00</time>
      </trkpt>
      <trkpt lat="48.08053" lon="-4.13361">
        <ele>126.81208801269</ele>
        <time>0001-01-01T00:00:00</time>
      </trkpt>
      <trkpt lat="48.07948" lon="-4.13212">
        <ele>115.88832092285</ele>
        <time>0001-01-01T00:00:00</time>
      </trkpt>
      <trkpt lat="48.07827" lon="-4.13159">
        <ele>102.64910888672</ele>
        <time>0001-01-01T00:00:00</time>
      </trkpt>
      <trkpt lat="48.07845" lon="-4.12968">
        <ele>97.915550231934</ele>
        <time>0001-01-01T00:00:00</time>
      </trkpt>
      <trkpt lat="48.07709" lon="-4.1276">
        <ele>107.88040924072</ele>
        <time>0001-01-01T00:00:00</time>
      </trkpt>
      <trkpt lat="48.07814" lon="-4.12627">
        <ele>112.69195556641</ele>
        <time>0001-01-01T00:00:00</time>
      </trkpt>
      <trkpt lat="48.07846" lon="-4.12316">
        <ele>114.94469451904</ele>
        <time>0001-01-01T00:00:00</time>
      </trkpt>
      <trkpt lat="48.07687" lon="-4.12118">
        <ele>110.81485748291</ele>
        <time>0001-01-01T00:00:00</time>
      </trkpt>
      <trkpt lat="48.07411" lon="-4.11919">
        <ele>120.58103942871</ele>
        <time>0001-01-01T00:00:00</time>
      </trkpt>
      <trkpt lat="48.07306" lon="-4.11801">
        <ele>113.83881378174</ele>
        <time>0001-01-01T00:00:00</time>
      </trkpt>
      <trkpt lat="48.0724" lon="-4.11558">
        <ele>105.88766479492</ele>
        <time>0001-01-01T00:00:00</time>
      </trkpt>
      <trkpt lat="48.06842" lon="-4.11065">
        <ele>78.458206176758</ele>
        <time>0001-01-01T00:00:00</time>
      </trkpt>
      <trkpt lat="48.06218" lon="-4.10929">
        <ele>85.535568237305</ele>
        <time>0001-01-01T00:00:00</time>
      </trkpt>
      <trkpt lat="48.06011" lon="-4.10719">
        <ele>59.827285766602</ele>
        <time>0001-01-01T00:00:00</time>
      </trkpt>
      <trkpt lat="48.05795" lon="-4.11153">
        <ele>46.635143280029</ele>
        <time>0001-01-01T00:00:00</time>
      </trkpt>
      <trkpt lat="48.05709" lon="-4.11236">
        <ele>55.441272735596</ele>
        <time>0001-01-01T00:00:00</time>
      </trkpt>
      <trkpt lat="48.05873" lon="-4.11369">
        <ele>62.342830657959</ele>
        <time>0001-01-01T00:00:00</time>
      </trkpt>
      <trkpt lat="48.05896" lon="-4.11663">
        <ele>73.537498474121</ele>
        <time>0001-01-01T00:00:00</time>
      </trkpt>
      <trkpt lat="48.05815" lon="-4.11532">
        <ele>92.769920349121</ele>
        <time>0001-01-01T00:00:00</time>
      </trkpt>
      <trkpt lat="48.05819" lon="-4.11447">
        <ele>86.416473388672</ele>
        <time>0001-01-01T00:00:00</time>
      </trkpt>
      <trkpt lat="48.05752" lon="-4.1138">
        <ele>87.758918762207</ele>
        <time>0001-01-01T00:00:00</time>
      </trkpt>
      <trkpt lat="48.05696" lon="-4.11404">
        <ele>92.105239868164</ele>
        <time>0001-01-01T00:00:00</time>
      </trkpt>
      <trkpt lat="48.05679" lon="-4.11453">
        <ele>94.025756835938</ele>
        <time>0001-01-01T00:00:00</time>
      </trkpt>
      <trkpt lat="48.05492" lon="-4.11517">
        <ele>103.70445251465</ele>
        <time>0001-01-01T00:00:00</time>
      </trkpt>
      <trkpt lat="48.05473" lon="-4.11592">
        <ele>106.03486633301</ele>
        <time>0001-01-01T00:00:00</time>
      </trkpt>
      <trkpt lat="48.0537" lon="-4.1159">
        <ele>108.60244750977</ele>
        <time>0001-01-01T00:00:00</time>
      </trkpt>
      <trkpt lat="48.05402" lon="-4.11219">
        <ele>98.265769958496</ele>
        <time>0001-01-01T00:00:00</time>
      </trkpt>
      <trkpt lat="48.05405" lon="-4.10867">
        <ele>85.336837768555</ele>
        <time>0001-01-01T00:00:00</time>
      </trkpt>
      <trkpt lat="48.05352" lon="-4.10775">
        <ele>80.100761413574</ele>
        <time>0001-01-01T00:00:00</time>
      </trkpt>
      <trkpt lat="48.05334" lon="-4.10713">
        <ele>73.529151916504</ele>
        <time>0001-01-01T00:00:00</time>
      </trkpt>
      <trkpt lat="48.05364" lon="-4.1059">
        <ele>56.750797271729</ele>
        <time>0001-01-01T00:00:00</time>
      </trkpt>
      <trkpt lat="48.05339" lon="-4.10569">
        <ele>55.928909301758</ele>
        <time>0001-01-01T00:00:00</time>
      </trkpt>
      <trkpt lat="48.05258" lon="-4.10711">
        <ele>56.089736938477</ele>
        <time>0001-01-01T00:00:00</time>
      </trkpt>
      <trkpt lat="48.05182" lon="-4.10959">
        <ele>59.891502380371</ele>
        <time>0001-01-01T00:00:00</time>
      </trkpt>
      <trkpt lat="48.05006" lon="-4.11256">
        <ele>58.696575164795</ele>
        <time>0001-01-01T00:00:00</time>
      </trkpt>
      <trkpt lat="48.04917" lon="-4.11313">
        <ele>68.672172546387</ele>
        <time>0001-01-01T00:00:00</time>
      </trkpt>
      <trkpt lat="48.04812" lon="-4.11264">
        <ele>55.356479644775</ele>
        <time>0001-01-01T00:00:00</time>
      </trkpt>
      <trkpt lat="48.04637" lon="-4.11065">
        <ele>50.132678985596</ele>
        <time>0001-01-01T00:00:00</time>
      </trkpt>
      <trkpt lat="48.04571" lon="-4.11054">
        <ele>54.694339752197</ele>
        <time>0001-01-01T00:00:00</time>
      </trkpt>
      <trkpt lat="48.04598" lon="-4.11155">
        <ele>65.598365783691</ele>
        <time>0001-01-01T00:00:00</time>
      </trkpt>
      <trkpt lat="48.0456" lon="-4.11269">
        <ele>66.994178771973</ele>
        <time>0001-01-01T00:00:00</time>
      </trkpt>
      <trkpt lat="48.04561" lon="-4.11348">
        <ele>63.997272491455</ele>
        <time>0001-01-01T00:00:00</time>
      </trkpt>
      <trkpt lat="48.04657" lon="-4.11434">
        <ele>74.002105712891</ele>
        <time>0001-01-01T00:00:00</time>
      </trkpt>
      <trkpt lat="48.04486" lon="-4.11509">
        <ele>50.081638336182</ele>
        <time>0001-01-01T00:00:00</time>
      </trkpt>
      <trkpt lat="48.04568" lon="-4.11813">
        <ele>55.376937866211</ele>
        <time>0001-01-01T00:00:00</time>
      </trkpt>
      <trkpt lat="48.04531" lon="-4.11987">
        <ele>55.053604125977</ele>
        <time>0001-01-01T00:00:00</time>
      </trkpt>
      <trkpt lat="48.04564" lon="-4.12005">
        <ele>68.298110961914</ele>
        <time>0001-01-01T00:00:00</time>
      </trkpt>
      <trkpt lat="48.04598" lon="-4.11876">
        <ele>66.340744018555</ele>
        <time>0001-01-01T00:00:00</time>
      </trkpt>
      <trkpt lat="48.04607" lon="-4.11556">
        <ele>75.571296691895</ele>
        <time>0001-01-01T00:00:00</time>
      </trkpt>
      <trkpt lat="48.04794" lon="-4.12116">
        <ele>104.71491241455</ele>
        <time>0001-01-01T00:00:00</time>
      </trkpt>
      <trkpt lat="48.04821" lon="-4.1229">
        <ele>107.11366271973</ele>
        <time>0001-01-01T00:00:00</time>
      </trkpt>
      <trkpt lat="48.04903" lon="-4.12406">
        <ele>114.71286010742</ele>
        <time>0001-01-01T00:00:00</time>
      </trkpt>
      <trkpt lat="48.04884" lon="-4.1244">
        <ele>113.53369140625</ele>
        <time>0001-01-01T00:00:00</time>
      </trkpt>
      <trkpt lat="48.04781" lon="-4.12363">
        <ele>101.99756622315</ele>
        <time>0001-01-01T00:00:00</time>
      </trkpt>
      <trkpt lat="48.04741" lon="-4.12648">
        <ele>92.598640441895</ele>
        <time>0001-01-01T00:00:00</time>
      </trkpt>
      <trkpt lat="48.04716" lon="-4.12749">
        <ele>88.482360839844</ele>
        <time>0001-01-01T00:00:00</time>
      </trkpt>
      <trkpt lat="48.0475" lon="-4.12816">
        <ele>93.48469543457</ele>
        <time>0001-01-01T00:00:00</time>
      </trkpt>
      <trkpt lat="48.04905" lon="-4.1291">
        <ele>97.212104797363</ele>
        <time>0001-01-01T00:00:00</time>
      </trkpt>
      <trkpt lat="48.05089" lon="-4.1324">
        <ele>103.16613006592</ele>
        <time>0001-01-01T00:00:00</time>
      </trkpt>
      <trkpt lat="48.05056" lon="-4.13275">
        <ele>105.36084747315</ele>
        <time>0001-01-01T00:00:00</time>
      </trkpt>
      <trkpt lat="48.05118" lon="-4.13335">
        <ele>108.76959228516</ele>
        <time>0001-01-01T00:00:00</time>
      </trkpt>
      <trkpt lat="48.05136" lon="-4.13491">
        <ele>109.59392547607</ele>
        <time>0001-01-01T00:00:00</time>
      </trkpt>
      <trkpt lat="48.05179" lon="-4.13524">
        <ele>110.56948852539</ele>
        <time>0001-01-01T00:00:00</time>
      </trkpt>
      <trkpt lat="48.0512" lon="-4.13861">
        <ele>115.50724792481</ele>
        <time>0001-01-01T00:00:00</time>
      </trkpt>
      <trkpt lat="48.0495" lon="-4.1421">
        <ele>124.80688476562</ele>
        <time>0001-01-01T00:00:00</time>
      </trkpt>
      <trkpt lat="48.04733" lon="-4.14307">
        <ele>126.63671875</ele>
        <time>0001-01-01T00:00:00</time>
      </trkpt>
      <trkpt lat="48.04527" lon="-4.14026">
        <ele>110.47521972656</ele>
        <time>0001-01-01T00:00:00</time>
      </trkpt>
      <trkpt lat="48.04296" lon="-4.13878">
        <ele>105.8557434082</ele>
        <time>0001-01-01T00:00:00</time>
      </trkpt>
      <trkpt lat="48.04137" lon="-4.13747">
        <ele>99.781265258789</ele>
        <time>0001-01-01T00:00:00</time>
      </trkpt>
      <trkpt lat="48.03994" lon="-4.13511">
        <ele>75.15608215332</ele>
        <time>0001-01-01T00:00:00</time>
      </trkpt>
      <trkpt lat="48.03883" lon="-4.13455">
        <ele>54.44652557373</ele>
        <time>0001-01-01T00:00:00</time>
      </trkpt>
      <trkpt lat="48.03779" lon="-4.13876">
        <ele>75.387168884277</ele>
        <time>0001-01-01T00:00:00</time>
      </trkpt>
      <trkpt lat="48.03785" lon="-4.13966">
        <ele>86.590019226074</ele>
        <time>0001-01-01T00:00:00</time>
      </trkpt>
      <trkpt lat="48.03611" lon="-4.14073">
        <ele>59.844360351562</ele>
        <time>0001-01-01T00:00:00</time>
      </trkpt>
      <trkpt lat="48.03594" lon="-4.14146">
        <ele>56.684226989746</ele>
        <time>0001-01-01T00:00:00</time>
      </trkpt>
      <trkpt lat="48.03541" lon="-4.14131">
        <ele>47.116325378418</ele>
        <time>0001-01-01T00:00:00</time>
      </trkpt>
      <trkpt lat="48.03459" lon="-4.14356">
        <ele>42.329372406006</ele>
        <time>0001-01-01T00:00:00</time>
      </trkpt>
      <trkpt lat="48.03387" lon="-4.14191">
        <ele>27.992349624634</ele>
        <time>0001-01-01T00:00:00</time>
      </trkpt>
      <trkpt lat="48.03422" lon="-4.14124">
        <ele>26.337705612183</ele>
        <time>0001-01-01T00:00:00</time>
      </trkpt>
      <trkpt lat="48.03395" lon="-4.14051">
        <ele>27.872058868408</ele>
        <time>0001-01-01T00:00:00</time>
      </trkpt>
      <trkpt lat="48.03291" lon="-4.14101">
        <ele>39.678359985352</ele>
        <time>0001-01-01T00:00:00</time>
      </trkpt>
      <trkpt lat="48.03247" lon="-4.14253">
        <ele>48.779392242432</ele>
        <time>0001-01-01T00:00:00</time>
      </trkpt>
      <trkpt lat="48.03236" lon="-4.14189">
        <ele>49.388114929199</ele>
        <time>0001-01-01T00:00:00</time>
      </trkpt>
      <trkpt lat="48.03066" lon="-4.1459">
        <ele>30.722801208496</ele>
        <time>0001-01-01T00:00:00</time>
      </trkpt>
      <trkpt lat="48.02971" lon="-4.14474">
        <ele>26.610507965088</ele>
        <time>0001-01-01T00:00:00</time>
      </trkpt>
      <trkpt lat="48.0294" lon="-4.14346">
        <ele>29.896827697754</ele>
        <time>0001-01-01T00:00:00</time>
      </trkpt>
      <trkpt lat="48.02789" lon="-4.14333">
        <ele>33.114078521729</ele>
        <time>0001-01-01T00:00:00</time>
      </trkpt>
      <trkpt lat="48.02604" lon="-4.14227">
        <ele>35.153884887695</ele>
        <time>0001-01-01T00:00:00</time>
      </trkpt>
      <trkpt lat="48.02531" lon="-4.14103">
        <ele>41.349136352539</ele>
        <time>0001-01-01T00:00:00</time>
      </trkpt>
      <trkpt lat="48.02515" lon="-4.13916">
        <ele>49.158592224121</ele>
        <time>0001-01-01T00:00:00</time>
      </trkpt>
      <trkpt lat="48.0253" lon="-4.13694">
        <ele>57.056209564209</ele>
        <time>0001-01-01T00:00:00</time>
      </trkpt>
      <trkpt lat="48.02387" lon="-4.13251">
        <ele>67.600318908691</ele>
        <time>0001-01-01T00:00:00</time>
      </trkpt>
      <trkpt lat="48.02353" lon="-4.12858">
        <ele>77.783317565918</ele>
        <time>0001-01-01T00:00:00</time>
      </trkpt>
      <trkpt lat="48.01984" lon="-4.12738">
        <ele>64.554840087891</ele>
        <time>0001-01-01T00:00:00</time>
      </trkpt>
      <trkpt lat="48.01889" lon="-4.12931">
        <ele>50.982749938965</ele>
        <time>0001-01-01T00:00:00</time>
      </trkpt>
      <trkpt lat="48.01797" lon="-4.12824">
        <ele>39.26806640625</ele>
        <time>0001-01-01T00:00:00</time>
      </trkpt>
      <trkpt lat="48.01717" lon="-4.1252">
        <ele>30.98713684082</ele>
        <time>0001-01-01T00:00:00</time>
      </trkpt>
      <trkpt lat="48.01565" lon="-4.12524">
        <ele>15.905772209168</ele>
        <time>0001-01-01T00:00:00</time>
      </trkpt>
      <trkpt lat="48.01421" lon="-4.12425">
        <ele>13.660828590393</ele>
        <time>0001-01-01T00:00:00</time>
      </trkpt>
      <trkpt lat="48.01427" lon="-4.12292">
        <ele>19.868473052979</ele>
        <time>0001-01-01T00:00:00</time>
      </trkpt>
      <trkpt lat="48.01367" lon="-4.12275">
        <ele>28.634244918823</ele>
        <time>0001-01-01T00:00:00</time>
      </trkpt>
      <trkpt lat="48.01344" lon="-4.12417">
        <ele>34.951446533203</ele>
        <time>0001-01-01T00:00:00</time>
      </trkpt>
      <trkpt lat="48.01263" lon="-4.12275">
        <ele>48.247219085693</ele>
        <time>0001-01-01T00:00:00</time>
      </trkpt>
      <trkpt lat="48.01068" lon="-4.12365">
        <ele>60.8303565979</ele>
        <time>0001-01-01T00:00:00</time>
      </trkpt>
      <trkpt lat="48.00988" lon="-4.12661">
        <ele>73.156105041504</ele>
        <time>0001-01-01T00:00:00</time>
      </trkpt>
      <trkpt lat="48.00867" lon="-4.12721">
        <ele>77.126518249512</ele>
        <time>0001-01-01T00:00:00</time>
      </trkpt>
      <trkpt lat="48.00793" lon="-4.12549">
        <ele>72.355766296387</ele>
        <time>0001-01-01T00:00:00</time>
      </trkpt>
      <trkpt lat="48.00715" lon="-4.12738">
        <ele>68.218864440918</ele>
        <time>0001-01-01T00:00:00</time>
      </trkpt>
      <trkpt lat="48.00635" lon="-4.12704">
        <ele>64.192314147949</ele>
        <time>0001-01-01T00:00:00</time>
      </trkpt>
      <trkpt lat="48.00758" lon="-4.12434">
        <ele>69.524589538574</ele>
        <time>0001-01-01T00:00:00</time>
      </trkpt>
      <trkpt lat="48.00328" lon="-4.11498">
        <ele>6.1099276542664</ele>
        <time>0001-01-01T00:00:00</time>
      </trkpt>
      <trkpt lat="48.00247" lon="-4.11429">
        <ele>7.0673828125</ele>
        <time>0001-01-01T00:00:00</time>
      </trkpt>
      <trkpt lat="48.00198" lon="-4.10889">
        <ele>7.8686594963074</ele>
        <time>0001-01-01T00:00:00</time>
      </trkpt>
      <trkpt lat="48.00259" lon="-4.10837">
        <ele>7.4563694000244</ele>
        <time>0001-01-01T00:00:00</time>
      </trkpt>
      <trkpt lat="48.00224" lon="-4.10687">
        <ele>11.417625427246</ele>
        <time>0001-01-01T00:00:00</time>
      </trkpt>
      <trkpt lat="47.99954" lon="-4.10554">
        <ele>14.38233757019</ele>
        <time>0001-01-01T00:00:00</time>
      </trkpt>
      <trkpt lat="47.99903" lon="-4.10567">
        <ele>13.917049407959</ele>
        <time>0001-01-01T00:00:00</time>
      </trkpt>
      <trkpt lat="47.99897" lon="-4.10236">
        <ele>32.479347229004</ele>
        <time>0001-01-01T00:00:00</time>
      </trkpt>
      <trkpt lat="48.00402" lon="-4.09863">
        <ele>53.656871795654</ele>
        <time>0001-01-01T00:00:00</time>
      </trkpt>
      <trkpt lat="48.00471" lon="-4.09279">
        <ele>47.951099395752</ele>
        <time>0001-01-01T00:00:00</time>
      </trkpt>
      <trkpt lat="48.00571" lon="-4.09245">
        <ele>54.220703125</ele>
        <time>0001-01-01T00:00:00</time>
      </trkpt>
      <trkpt lat="48.0064" lon="-4.09086">
        <ele>58.360973358154</ele>
        <time>0001-01-01T00:00:00</time>
      </trkpt>
      <trkpt lat="48.00646" lon="-4.0897">
        <ele>58.600639343262</ele>
        <time>0001-01-01T00:00:00</time>
      </trkpt>
      <trkpt lat="48.00744" lon="-4.0897">
        <ele>51.541400909424</ele>
        <time>0001-01-01T00:00:00</time>
      </trkpt>
      <trkpt lat="48.0078" lon="-4.08749">
        <ele>48.560424804688</ele>
        <time>0001-01-01T00:00:00</time>
      </trkpt>
    </trkseg>
  </trk>
</gpx>